User: anonymous   Login
Location: Unspecified
(0.0000°N, 0.0000°E)
Time: 07:02:14
(UTC+00:00)
Language:

UME 1 - Orbit

View from above orbital plane
View from above orbital plane
View from above satellite
View from above satellite

Ground track
Ground track

The orbit data is extracted from the following two-line orbital elements,

1  8709U 76019A   19082.84035775 -.00000041 +00000-0 +12288-4 0  9997
2  8709 069.6722 241.4787 0012669 215.7655 247.3610 13.71410148154773
Epoch (UTC): 23 March 2019 20:10:06
Eccentricity: 0.0012669
inclination: 69.6722°
perigee height: 985 km
apogee height: 1004 km
right ascension of ascending node: 241.4787°
argument of perigee: 215.7655°
revolutions per day: 13.71410148
mean anomaly at epoch: 247.3610°
orbit number at epoch: 15477

The dashed part of the orbit path shows where the satellite is in the earth's shadow,  

DLR